Time,TemperatureF,DewpointF,PressureIn,WindDirection,WindDirectionDegrees,WindSpeedMPH,WindSpeedGustMPH,Humidity,HourlyPrecipIn,Conditions,Clouds,dailyrainin,SolarRadiationWatts/m^2,SoftwareType,DateUTC
2013-01-19 00:12:00,18.0,9.0,-100.00,SW,234,7.0,9.0,68,0.00,,,0.00,0.000000,,2013-01-19 07:12:00,
2013-01-19 00:22:00,18.0,9.0,-100.00,SW,234,7.0,9.0,68,0.00,,,0.00,0.000000,,2013-01-19 07:22:00,
2013-01-19 00:32:00,18.0,9.0,-100.00,SW,234,7.0,9.0,68,0.00,,,0.00,0.000000,,2013-01-19 07:32:00,
2013-01-19 00:42:00,18.0,9.0,-100.00,SW,234,7.0,9.0,68,0.00,,,0.00,0.000000,,2013-01-19 07:42:00,
2013-01-19 01:12:00,16.0,9.0,-100.00,SW,226,7.0,11.0,73,0.00,,,0.00,0.000000,,2013-01-19 08:12:00,
2013-01-19 01:22:00,16.0,9.0,-100.00,SW,226,7.0,11.0,73,0.00,,,0.00,0.000000,,2013-01-19 08:22:00,
2013-01-19 01:32:00,16.0,9.0,-100.00,SW,226,7.0,11.0,73,0.00,,,0.00,0.000000,,2013-01-19 08:32:00,
2013-01-19 01:42:00,16.0,9.0,-100.00,SW,226,7.0,11.0,73,0.00,,,0.00,0.000000,,2013-01-19 08:42:00,
2013-01-19 02:12:00,18.0,4.0,-100.00,West,259,5.0,10.0,54,0.00,,,0.00,0.000000,,2013-01-19 09:12:00,
2013-01-19 02:22:00,18.0,4.0,-100.00,West,259,5.0,10.0,54,0.00,,,0.00,0.000000,,2013-01-19 09:22:00,
2013-01-19 02:32:00,18.0,4.0,-100.00,West,259,5.0,10.0,54,0.00,,,0.00,0.000000,,2013-01-19 09:32:00,
2013-01-19 02:42:00,18.0,4.0,-100.00,West,259,5.0,10.0,54,0.00,,,0.00,0.000000,,2013-01-19 09:42:00,
2013-01-19 03:12:00,13.0,1.0,-100.00,SW,219,8.0,12.0,59,0.00,,,0.00,0.000000,,2013-01-19 10:12:00,
2013-01-19 03:22:00,13.0,1.0,-100.00,SW,219,8.0,12.0,59,0.00,,,0.00,0.000000,,2013-01-19 10:22:00,
2013-01-19 03:32:00,13.0,1.0,-100.00,SW,219,8.0,12.0,59,0.00,,,0.00,0.000000,,2013-01-19 10:32:00,
2013-01-19 03:42:00,13.0,1.0,-100.00,SW,219,8.0,12.0,59,0.00,,,0.00,0.000000,,2013-01-19 10:42:00,
2013-01-19 04:12:00,14.0,0.0,-100.00,West,279,1.0,10.0,52,0.00,,,0.00,0.000000,,2013-01-19 11:12:00,
2013-01-19 06:12:00,10.0,-2.0,-100.00,SSW,204,7.0,13.0,57,0.00,,,0.00,0.000000,,2013-01-19 13:12:00,
2013-01-19 06:22:00,10.0,-2.0,-100.00,SSW,204,7.0,13.0,57,0.00,,,0.00,0.000000,,2013-01-19 13:22:00,
2013-01-19 06:33:00,10.0,-2.0,-100.00,SSW,204,7.0,13.0,57,0.00,,,0.00,0.000000,,2013-01-19 13:33:00,
2013-01-19 06:42:00,10.0,-2.0,-100.00,SSW,204,7.0,13.0,57,0.00,,,0.00,0.000000,,2013-01-19 13:42:00,
2013-01-19 07:12:00,12.0,-4.0,-100.00,SW,224,2.0,5.0,48,0.00,,,0.00,0.000000,,2013-01-19 14:12:00,
2013-01-19 07:22:00,12.0,-4.0,-100.00,SW,224,2.0,5.0,48,0.00,,,0.00,0.000000,,2013-01-19 14:22:00,
2013-01-19 07:33:00,12.0,-4.0,-100.00,SW,224,2.0,5.0,48,0.00,,,0.00,0.000000,,2013-01-19 14:33:00,
2013-01-19 07:42:00,12.0,-4.0,-100.00,SW,224,2.0,5.0,48,0.00,,,0.00,0.000000,,2013-01-19 14:42:00,
2013-01-19 08:12:00,9.0,-1.0,-100.00,NE,36,4.0,13.0,63,0.00,,,0.00,7.000000,,2013-01-19 15:12:00,
2013-01-19 08:22:00,9.0,-1.0,-100.00,NE,36,4.0,13.0,63,0.00,,,0.00,7.000000,,2013-01-19 15:22:00,
2013-01-19 08:33:00,9.0,-1.0,-100.00,NE,36,4.0,13.0,63,0.00,,,0.00,7.000000,,2013-01-19 15:33:00,
2013-01-19 08:42:00,9.0,-1.0,-100.00,NE,36,4.0,13.0,63,0.00,,,0.00,7.000000,,2013-01-19 15:42:00,
2013-01-19 09:12:00,19.0,2.0,-100.00,North,356,0.0,9.0,46,0.00,,,0.00,177.000000,,2013-01-19 16:12:00,
2013-01-19 09:23:00,19.0,2.0,-100.00,North,356,0.0,9.0,46,0.00,,,0.00,177.000000,,2013-01-19 16:23:00,
2013-01-19 09:42:00,19.0,2.0,-100.00,North,356,0.0,9.0,46,0.00,,,0.00,177.000000,,2013-01-19 16:42:00,
2013-01-19 10:27:00,23.0,1.0,-100.00,North,9,1.0,6.0,37,0.00,,,0.00,392.000000,,2013-01-19 17:27:00,
2013-01-19 11:13:00,24.0,5.0,-100.00,NE,40,4.0,7.0,43,0.00,,,0.00,569.000000,,2013-01-19 18:13:00,
2013-01-19 11:25:00,24.0,5.0,-100.00,NE,40,4.0,7.0,43,0.00,,,0.00,569.000000,,2013-01-19 18:25:00,
2013-01-19 11:34:00,24.0,5.0,-100.00,NE,40,4.0,7.0,43,0.00,,,0.00,569.000000,,2013-01-19 18:34:00,
2013-01-19 11:43:00,24.0,5.0,-100.00,NE,40,4.0,7.0,43,0.00,,,0.00,569.000000,,2013-01-19 18:43:00,
2013-01-19 12:17:00,23.0,6.0,-100.00,NE,45,7.0,10.0,47,0.00,,,0.00,684.000000,,2013-01-19 19:17:00,
2013-01-19 12:27:00,23.0,6.0,-100.00,NE,45,7.0,10.0,47,0.00,,,0.00,684.000000,,2013-01-19 19:27:00,
2013-01-19 12:36:00,23.0,6.0,-100.00,NE,45,7.0,10.0,47,0.00,,,0.00,684.000000,,2013-01-19 19:36:00,
2013-01-19 12:43:00,23.0,6.0,-100.00,NE,45,7.0,10.0,47,0.00,,,0.00,684.000000,,2013-01-19 19:43:00,
2013-01-19 13:17:00,36.0,8.0,-100.00,ENE,67,0.0,10.0,30,0.00,,,-99.99,727.000000,,2013-01-19 20:17:00,
2013-01-19 13:24:00,36.0,8.0,-100.00,ENE,67,0.0,10.0,30,0.00,,,-99.99,727.000000,,2013-01-19 20:24:00,
2013-01-19 13:35:00,36.0,8.0,-100.00,ENE,67,0.0,10.0,30,0.00,,,-99.99,727.000000,,2013-01-19 20:35:00,
2013-01-19 14:14:00,36.0,11.0,-100.00,NNW,342,0.0,6.0,35,0.00,,,0.00,696.000000,,2013-01-19 21:14:00,
2013-01-19 14:24:00,36.0,11.0,-100.00,NNW,342,0.0,6.0,35,0.00,,,0.00,696.000000,,2013-01-19 21:24:00,
2013-01-19 14:37:00,36.0,11.0,-100.00,NNW,342,0.0,6.0,35,0.00,,,0.00,696.000000,,2013-01-19 21:37:00,
2013-01-19 15:15:00,34.0,11.0,-100.00,WSW,257,0.0,4.0,37,0.00,,,0.00,591.000000,,2013-01-19 22:15:00,
2013-01-19 15:24:00,34.0,11.0,-100.00,WSW,257,0.0,4.0,37,0.00,,,0.00,591.000000,,2013-01-19 22:24:00,
2013-01-19 15:34:00,34.0,11.0,-100.00,WSW,257,0.0,4.0,37,0.00,,,0.00,591.000000,,2013-01-19 22:34:00,
2013-01-19 15:44:00,34.0,11.0,-100.00,WSW,257,0.0,4.0,37,0.00,,,0.00,591.000000,,2013-01-19 22:44:00,
2013-01-19 16:14:00,35.0,2.0,-100.00,West,277,1.0,5.0,24,0.00,,,0.00,421.000000,,2013-01-19 23:14:00,
2013-01-19 16:24:00,35.0,2.0,-100.00,West,277,1.0,5.0,24,0.00,,,0.00,421.000000,,2013-01-19 23:24:00,
2013-01-19 16:33:00,35.0,2.0,-100.00,West,277,1.0,5.0,24,0.00,,,0.00,421.000000,,2013-01-19 23:33:00,
2013-01-19 16:44:00,35.0,2.0,-100.00,West,277,1.0,5.0,24,0.00,,,0.00,421.000000,,2013-01-19 23:44:00,
2013-01-19 17:14:00,30.0,5.0,-100.00,SW,232,4.0,7.0,34,0.00,,,0.00,207.000000,,2013-01-20 00:14:00,
2013-01-19 17:24:00,30.0,5.0,-100.00,SW,232,4.0,7.0,34,0.00,,,0.00,207.000000,,2013-01-20 00:24:00,
2013-01-19 17:34:00,30.0,5.0,-100.00,SW,232,4.0,7.0,34,0.00,,,0.00,207.000000,,2013-01-20 00:34:00,
2013-01-19 17:44:00,30.0,5.0,-100.00,SW,232,4.0,7.0,34,0.00,,,0.00,207.000000,,2013-01-20 00:44:00,
2013-01-19 18:16:00,27.0,6.0,-100.00,SW,229,4.0,9.0,40,0.00,,,0.00,18.000000,,2013-01-20 01:16:00,
2013-01-19 18:24:00,27.0,6.0,-100.00,SW,229,4.0,9.0,40,0.00,,,0.00,18.000000,,2013-01-20 01:24:00,
2013-01-19 18:34:00,27.0,6.0,-100.00,SW,229,4.0,9.0,40,0.00,,,0.00,18.000000,,2013-01-20 01:34:00,
2013-01-19 18:44:00,27.0,6.0,-100.00,SW,229,4.0,9.0,40,0.00,,,0.00,18.000000,,2013-01-20 01:44:00,
2013-01-19 19:14:00,26.0,5.0,-100.00,SW,218,5.0,8.0,40,-99.99,,,0.00,0.000000,,2013-01-20 02:14:00,
2013-01-19 19:25:00,26.0,5.0,-100.00,SW,218,5.0,8.0,40,-99.99,,,0.00,0.000000,,2013-01-20 02:25:00,
2013-01-19 19:34:00,26.0,5.0,-100.00,SW,218,5.0,8.0,40,-99.99,,,0.00,0.000000,,2013-01-20 02:34:00,
2013-01-19 20:14:00,23.0,6.0,-100.00,SW,229,3.0,7.0,47,-99.99,,,0.00,0.000000,,2013-01-20 03:14:00,
2013-01-19 20:24:00,23.0,6.0,-100.00,SW,229,3.0,7.0,47,-99.99,,,0.00,0.000000,,2013-01-20 03:24:00,
2013-01-19 20:35:00,23.0,6.0,-100.00,SW,229,3.0,7.0,47,-99.99,,,0.00,0.000000,,2013-01-20 03:35:00,
2013-01-19 21:14:00,20.0,6.0,-100.00,SW,224,7.0,9.0,55,0.00,,,0.00,0.000000,,2013-01-20 04:14:00,
2013-01-19 21:24:00,20.0,6.0,-100.00,SW,224,7.0,9.0,55,0.00,,,0.00,0.000000,,2013-01-20 04:24:00,
2013-01-19 21:34:00,20.0,6.0,-100.00,SW,224,7.0,9.0,55,0.00,,,0.00,0.000000,,2013-01-20 04:34:00,
2013-01-19 21:43:00,20.0,6.0,-100.00,SW,224,7.0,9.0,55,0.00,,,0.00,0.000000,,2013-01-20 04:43:00,
2013-01-19 22:12:00,18.0,3.0,-100.00,SE,133,0.0,8.0,52,0.00,,,0.00,0.000000,,2013-01-20 05:12:00,
2013-01-19 22:22:00,18.0,3.0,-100.00,SE,133,0.0,8.0,52,0.00,,,0.00,0.000000,,2013-01-20 05:22:00,
2013-01-19 22:32:00,18.0,3.0,-100.00,SE,133,0.0,8.0,52,0.00,,,0.00,0.000000,,2013-01-20 05:32:00,
2013-01-19 22:42:00,18.0,3.0,-100.00,SE,133,0.0,8.0,52,0.00,,,0.00,0.000000,,2013-01-20 05:42:00,
2013-01-19 23:12:00,16.0,3.0,-100.00,SW,214,0.0,4.0,56,0.00,,,0.00,0.000000,,2013-01-20 06:12:00,
2013-01-19 23:22:00,16.0,3.0,-100.00,SW,214,0.0,4.0,56,0.00,,,0.00,0.000000,,2013-01-20 06:22:00,
2013-01-19 23:33:00,16.0,3.0,-100.00,SW,214,0.0,4.0,56,0.00,,,0.00,0.000000,,2013-01-20 06:33:00,
2013-01-19 23:42:00,16.0,3.0,-100.00,SW,214,0.0,4.0,56,0.00,,,0.00,0.000000,,2013-01-20 06:42:00,